CW1459 Weather Reports


time (UTC)temp
F
wind
direction
speed
knots
gust
knots
rain 1hr
in
rain 24hr
in
rain mn
in
humidity
%
barometer
mb
20260905000340 77 222 1.7 7.0 0.00 0.18 0.01 87 1010.7
20260904235344 78 196 1.7 4.3 0.00 0.18 0.01 87 1010.8
20260904234315 78 219 1.7 4.3 0.00 0.18 0.01 86 1010.7
20260904233339 79 191 2.6 6.1 0.00 0.18 0.01 85 1010.8
20260904232341 79 192 1.7 5.2 0.00 0.18 0.01 85 1010.8
20260904231315 80 190 2.6 5.2 0.00 0.18 0.01 84 1010.8
20260904230315 81 192 1.7 3.5 0.00 0.18 0.01 85 1010.7
20260904225340 81 190 0.9 2.6 0.00 0.18 0.01 84 1010.9
20260904224314 81 281 1.7 5.2 0.00 0.18 0.01 83 1011.0
20260904223352 82 259 1.7 5.2 0.00 0.18 0.01 81 1011.2
20260904222317 82 237 1.7 3.5 0.00 0.18 0.01 80 1011.3
20260904221315 82 229 1.7 3.5 0.00 0.18 0.01 80 1011.1
20260904220326 82 264 2.6 5.2 0.00 0.18 0.01 79 1011.1
20260904215320 83 217 1.7 3.5 0.00 0.18 0.01 79 1011.0
20260904214317 83 280 0.9 4.3 0.00 0.18 0.01 77 1011.1
20260904213326 84 243 2.6 4.3 0.00 0.18 0.01 76 1011.2
20260904212315 84 223 1.7 4.3 0.00 0.18 0.01 75 1011.1
20260904211340 84 140 1.7 3.5 0.00 0.18 0.01 75 1011.2
20260904210321 84 245 0.9 3.5 0.00 0.18 0.01 73 1011.3
20260904205337 85 241 1.7 4.3 0.00 0.18 0.01 73 1011.8
20260904204320 84 285 1.7 5.2 0.00 0.18 0.01 74 1011.8
20260904203358 84 273 0.9 2.6 0.00 0.18 0.01 72 1011.7
20260904202330 84 269 0.9 1.7 0.00 0.18 0.01 72 1011.5
20260904201316 84 252 0.9 1.7 0.00 0.18 0.01 72 1011.2
20260904200317 84 289 0.9 2.6 0.00 0.18 0.01 72 1011.3
20260904195323 84 291 0.9 3.5 0.00 0.18 0.01 72 1011.2
20260904194314 84 291 0.9 2.6 0.00 0.18 0.01 71 1011.5
20260904193355 84 327 2.6 3.5 0.00 0.18 0.01 71 1011.6
20260904192351 84 315 1.7 4.3 0.00 0.18 0.01 71 1011.8
20260904191324 84 329 2.6 5.2 0.00 0.18 0.01 68 1011.9
20260904190316 85 351 4.3 7.0 0.00 0.18 0.01 68 1012.1
20260904185328 85 316 3.5 7.8 0.00 0.18 0.01 66 1012.0
20260904184320 85 327 3.5 4.3 0.00 0.18 0.01 68 1011.6
20260904183332 86 296 1.7 9.6 0.00 0.18 0.01 65 1012.2
20260904182400 86 321 4.3 10.4 0.00 0.18 0.01 66 1012.6
20260904181317 86 305 3.5 7.8 0.00 0.18 0.01 70 1012.7
20260904180349 85 290 3.5 7.0 0.00 0.18 0.01 67 1012.8
20260904175354 85 339 4.3 8.7 0.00 0.18 0.01 71 1012.8
20260904174313 85 311 2.6 5.2 0.00 0.18 0.01 69 1012.9
20260904173335 85 278 3.5 6.1 0.00 0.18 0.01 69 1012.9
20260904172321 85 252 2.6 8.7 0.00 0.18 0.01 70 1013.0
20260904171317 83 349 3.5 7.0 0.00 0.18 0.01 72 1013.1
20260904170337 84 307 3.5 7.8 0.00 0.18 0.01 71 1013.3
20260904165320 83 290 1.7 5.2 0.00 0.18 0.01 73 1013.3
20260904164318 83 333 3.5 7.0 0.00 0.18 0.01 70 1013.4
20260904163337 83 290 1.7 7.8 0.00 0.18 0.01 70 1013.6
20260904162312 83 351 1.7 7.0 0.00 0.18 0.01 72 1013.6
20260904161349 83 301 3.5 7.0 0.00 0.18 0.01 71 1013.7
20260904160332 82 327 0.0 7.0 0.00 0.18 0.01 72 1013.7
20260904155334 81 299 4.3 7.0 0.00 0.18 0.01 73 1013.8
20260904154312 82 289 2.6 3.5 0.00 0.18 0.01 74 1013.8
20260904153336 81 271 0.9 4.3 0.00 0.18 0.01 76 1013.9
20260904152335 80 227 0.9 3.5 0.00 0.18 0.01 74 1014.0
20260904151316 80 292 1.7 5.2 0.00 0.18 0.01 75 1014.1
20260904150336 80 351 0.9 3.5 0.00 0.18 0.01 80 1013.9
20260904145316 78 64 2.6 5.2 0.00 0.36 0.01 79 1013.9
20260904144331 79 323 3.5 5.2 0.00 0.36 0.01 80 1014.0
20260904143312 78 320 0.9 3.5 0.00 0.36 0.01 85 1014.1
20260904142314 77 310 0.9 6.1 0.00 0.36 0.01 83 1014.0
20260904141315 77 236 2.6 6.1 0.00 0.36 0.01 84 1014.0
20260904140313 77 225 1.7 3.5 0.00 0.36 0.01 86 1014.1
20260904135332 77 165 0.9 3.5 0.00 0.36 0.01 88 1014.1
20260904134329 76 253 1.7 3.5 0.00 0.36 0.01 88 1014.0
20260904133330 75 218 1.7 4.3 0.00 0.36 0.01 92 1014.0
20260904132314 74 256 1.7 4.3 0.00 0.36 0.01 93 1014.1
20260904131318 73 191 1.7 3.5 0.00 0.36 0.01 95 1014.0
20260904130334 73 235 1.7 2.6 0.00 0.36 0.01 96 1014.1
20260904125331 71 159 0.9 2.6 0.00 0.38 0.01 96 1013.9
20260904124337 71 181 0.0 2.6 0.00 0.38 0.01 96 1013.7
20260904123337 70 181 0.9 1.7 0.00 0.38 0.01 96 1013.8
20260904122313 70 181 0.9 0.9 0.00 0.38 0.01 97 1013.6
20260904121313 70 181 0.0 1.7 0.00 0.38 0.01 97 1013.5
20260904120337 70 181 0.9 1.7 0.00 0.38 0.01 96 1013.6
20260904115313 69 181 0.0 1.7 0.00 0.38 0.01 96 1013.6
20260904114312 69 181 0.9 1.7 0.00 0.38 0.01 97 1013.6
20260904113335 69 181 0.0 0.9 0.00 0.38 0.01 96 1013.3
20260904112317 68 181 0.0 1.7 0.00 0.38 0.01 96 1013.5
20260904111331 68 181 0.9 1.7 0.00 0.38 0.01 96 1013.2
20260904110333 68 181 0.9 0.9 0.00 0.38 0.01 96 1013.5
20260904105339 68 181 0.9 1.7 0.00 0.38 0.01 96 1013.7
20260904103332 68 181 0.9 2.6 0.00 0.38 0.01 96 1013.3
20260904102353 68 181 0.0 1.7 0.00 0.38 0.01 96 1013.0
20260904101312 69 181 0.9 1.7 0.00 0.38 0.01 96 1013.0
20260904100319 69 181 0.9 1.7 0.00 0.38 0.01 96 1013.2
20260904095332 69 181 0.0 1.7 0.00 0.38 0.01 96 1013.1
20260904094313 69 181 0.9 1.7 0.00 0.38 0.01 96 1013.1
20260904093312 69 181 0.0 0.9 0.00 0.38 0.01 96 1013.1
20260904092356 69 181 0.0 1.7 0.00 0.38 0.01 96 1013.1
20260904091316 69 181 0.9 1.7 0.00 0.38 0.01 96 1013.0
20260904090337 69 173 1.7 2.6 0.00 0.38 0.01 96 1012.9
20260904085339 69 132 0.0 2.6 0.00 0.38 0.01 96 1013.1
20260904084332 69 124 0.0 3.5 0.00 0.38 0.01 96 1013.0
20260904083340 69 30 2.6 5.2 0.00 0.38 0.01 96 1013.3
20260904082319 69 198 0.0 0.9 0.00 0.38 0.01 96 1012.5
20260904081320 69 198 0.0 0.9 0.00 0.38 0.01 95 1012.3
20260904080317 69 198 0.0 1.7 0.00 0.38 0.01 95 1012.3
20260904075339 69 198 0.0 0.9 0.01 0.38 0.01 95 1012.4
20260904074339 69 198 0.0 1.7 0.01 0.38 0.01 95 1012.4
20260904073340 69 161 2.6 4.3 0.01 0.38 0.01 95 1012.3
20260904072342 69 159 1.7 3.5 0.01 0.38 0.01 95 1012.4
20260904071317 69 206 0.9 5.2 0.01 0.38 0.01 95 1012.5
20260904070321 69 158 2.6 6.1 0.01 0.38 0.01 95 1012.6
20260904065322 69 149 2.6 3.5 0.00 0.37 0.00 95 1012.6
20260904064321 69 120 2.6 4.3 0.00 0.37 0.00 95 1012.3
20260904063333 69 174 3.5 5.2 0.00 0.37 0.00 95 1012.2
20260904062400 69 148 1.7 4.3 0.00 0.37 0.00 95 1012.1
20260904061400 69 157 1.7 4.3 0.00 0.37 0.00 95 1012.1
20260904060321 69 165 2.6 4.3 0.00 0.37 0.00 95 1012.1
20260904055359 69 190 2.6 5.2 0.00 0.37 0.00 94 1012.1
20260904054319 69 165 1.7 4.3 0.00 0.37 0.00 94 1012.2
20260904053326 69 170 0.9 3.5 0.00 0.37 0.00 94 1012.5
20260904052315 69 181 1.7 3.5 0.00 0.37 0.00 94 1012.9
20260904051358 70 169 1.7 6.1 0.00 0.37 0.00 94 1013.3
20260904050322 70 244 3.5 8.7 0.00 0.37 0.00 94 1013.6
20260904045330 70 149 3.5 7.0 0.00 0.37 0.00 94 1014.1
20260904044340 70 202 2.6 4.3 0.02 0.37 0.00 94 1014.2
20260904043315 70 202 1.7 3.5 0.04 0.37 0.00 93 1013.9
20260904042318 71 218 1.7 4.3 0.06 0.37 0.00 93 1013.3
20260904041344 71 248 1.7 3.5 0.09 0.37 0.00 93 1013.5
20260904040344 71 311 2.6 3.5 0.10 0.37 0.00 93 1013.0
20260904035400 71 214 2.6 7.0 0.11 0.37 0.37 92 1012.8
20260904034339 71 145 4.3 7.0 0.10 0.35 0.35 93 1013.6
20260904033340 72 167 3.5 6.1 0.08 0.33 0.33 92 1015.3
20260904032402 72 168 3.5 4.3 0.06 0.31 0.31 92 1015.9
20260904031322 72 192 0.9 1.7 0.03 0.28 0.28 91 1015.8
20260904030345 72 343 1.7 4.3 0.02 0.27 0.27 91 1015.8
20260904025331 72 9 1.7 4.3 0.01 0.26 0.26 91 1015.2
20260904024336 72 322 0.9 3.5 0.04 0.25 0.25 90 1015.0
20260904023317 72 101 0.0 4.3 0.05 0.25 0.25 89 1014.3
20260904022317 73 90 3.5 7.0 0.05 0.25 0.25 88 1014.3
20260904021323 73 116 2.6 6.1 0.05 0.25 0.25 86 1014.6
20260904020314 75 78 2.6 7.0 0.05 0.25 0.25 84 1014.7
20260904015320 76 46 3.5 10.4 0.04 0.24 0.24 81 1014.6
20260904014331 77 309 6.1 17.4 0.00 0.20 0.20 81 1014.4
20260904013356 79 360 10.4 13.9 0.00 0.20 0.20 89 1013.5
20260904012401 79 155 0.0 0.9 0.00 0.20 0.20 88 1012.4
20260904011331 79 155 0.0 1.7 0.00 0.20 0.20 88 1012.6
20260904010336 79 155 0.0 0.9 0.00 0.20 0.20 88 1012.4
20260904005318 79 155 0.9 1.7 0.00 0.20 0.20 88 1012.2
20260904004333 79 155 0.0 0.9 0.00 0.20 0.20 87 1012.5
20260904003340 79 155 0.0 0.0 0.00 0.20 0.20 86 1012.3
20260904002315 79 155 0.0 0.9 0.00 0.20 0.20 86 1012.4
20260904001339 80 155 0.0 1.7 0.00 0.20 0.20 85 1012.6